TimeCET,TemperatureF,Dew PointF,Humidity,Sea Level PressureIn,VisibilityMPH,Wind Direction,Wind SpeedMPH,Gust SpeedMPH,PrecipitationIn,Events,Conditions,WindDirDegrees,DateUTC
12:00 AM,30.2,24.8,80,29.80,6.2,NW,4.6,-,N/A,,Overcast,320,2012-12-02 23:00:00
1:00 AM,28.4,24.8,86,29.80,6.2,NW,2.3,-,N/A,,Scattered Clouds,320,2012-12-03 00:00:00
2:00 AM,30.2,24.8,80,29.80,6.2,NW,5.8,-,N/A,,Mostly Cloudy,310,2012-12-03 01:00:00
3:00 AM,30.2,26.6,86,29.80,6.2,NW,3.5,-,N/A,,Overcast,310,2012-12-03 02:00:00
4:00 AM,30.2,26.6,86,29.80,6.2,WNW,4.6,-,N/A,,Overcast,290,2012-12-03 03:00:00
5:00 AM,32.0,28.4,87,29.80,6.2,NW,9.2,-,N/A,Snow,Light Snow,310,2012-12-03 04:00:00
6:00 AM,32.0,28.4,87,29.80,6.2,NW,11.5,-,N/A,Snow,Light Snow,320,2012-12-03 05:00:00
7:00 AM,32.0,28.4,87,29.83,6.2,NW,12.7,-,N/A,Snow,Light Snow,320,2012-12-03 06:00:00
8:00 AM,32.0,28.4,87,29.83,5.6,NW,10.4,-,N/A,Snow,Light Snow,320,2012-12-03 07:00:00
9:00 AM,32.0,26.6,80,29.86,6.2,NW,13.8,-,N/A,,Mostly Cloudy,320,2012-12-03 08:00:00
10:00 AM,32.0,26.6,80,29.86,6.2,NW,13.8,-,N/A,,Mostly Cloudy,320,2012-12-03 09:00:00
11:00 AM,32.0,24.8,75,29.86,6.2,NW,16.1,-,N/A,,Mostly Cloudy,320,2012-12-03 10:00:00
12:00 PM,33.8,24.8,70,29.86,6.2,NW,15.0,-,N/A,,Mostly Cloudy,320,2012-12-03 11:00:00
12:30 PM,30.2,26.6,86,29.86,2.8,North,10.4,-,N/A,Snow,Light Snow Showers,350,2012-12-03 11:30:00
1:00 PM,30.2,26.6,86,29.86,6.2,NNW,8.1,-,N/A,,Mostly Cloudy,340,2012-12-03 12:00:00
2:00 PM,30.2,24.8,80,29.86,6.2,NW,10.4,-,N/A,,Mostly Cloudy,320,2012-12-03 13:00:00
3:00 PM,32.0,24.8,75,29.86,6.2,NW,13.8,-,N/A,,Mostly Cloudy,320,2012-12-03 14:00:00
4:00 PM,30.2,24.8,80,29.86,6.2,NW,9.2,-,N/A,,Mostly Cloudy,310,2012-12-03 15:00:00
5:00 PM,30.2,23.0,75,29.86,6.2,NW,10.4,-,N/A,,Mostly Cloudy,310,2012-12-03 16:00:00
6:00 PM,30.2,24.8,80,29.86,6.2,NW,8.1,-,N/A,,Mostly Cloudy,310,2012-12-03 17:00:00
7:00 PM,28.4,24.8,86,29.86,6.2,West,3.5,-,N/A,,Mostly Cloudy,280,2012-12-03 18:00:00
8:00 PM,28.4,24.8,86,29.83,6.2,Calm,Calm,-,N/A,,Mostly Cloudy,0,2012-12-03 19:00:00
9:00 PM,26.6,23.0,86,29.83,-9999.0,SW,1.2,-,N/A,,Clear,220,2012-12-03 20:00:00
10:00 PM,26.6,23.0,86,29.80,-9999.0,SSW,3.5,-,N/A,,Clear,200,2012-12-03 21:00:00
11:00 PM,24.8,23.0,93,29.77,-9999.0,South,3.5,-,N/A,,Clear,190,2012-12-03 22:00:00